| time (UTC) | temp C | wind direction | speed KPH | gust KPH | rain 1hr cm | rain 24hr cm | rain mn cm | humidity % | barometer mb |
| 20260506211301 | 33 | 287 | 3.2 | 6.4 | 0.00 | 0.10 | 0.00 | 44 | 1012.5 |
| 20260506210801 | 33 | 0 | 3.2 | 6.4 | 0.00 | 0.10 | 0.00 | 44 | 1012.5 |
| 20260506210302 | 33 | 220 | 3.2 | 9.7 | 0.00 | 0.10 | 0.00 | 44 | 1012.5 |
| 20260506205301 | 33 | 0 | 3.2 | 14.5 | 0.00 | 0.10 | 0.00 | 43 | 1012.6 |
| 20260506203802 | 34 | 295 | 3.2 | 11.3 | 0.00 | 0.10 | 0.00 | 43 | 1012.7 |
| 20260506203301 | 33 | 0 | 1.6 | 11.3 | 0.00 | 0.10 | 0.00 | 42 | 1012.7 |
| 20260506202801 | 33 | 186 | 3.2 | 11.3 | 0.00 | 0.10 | 0.00 | 45 | 1012.7 |
| 20260506202301 | 32 | 219 | 3.2 | 8.0 | 0.00 | 0.10 | 0.00 | 45 | 1012.8 |
| 20260506201802 | 32 | 233 | 3.2 | 8.0 | 0.00 | 0.10 | 0.00 | 46 | 1012.8 |
| 20260506201301 | 32 | 157 | 3.2 | 8.0 | 0.00 | 0.10 | 0.00 | 47 | 1012.8 |
| 20260506200801 | 32 | 51 | 3.2 | 11.3 | 0.00 | 0.10 | 0.00 | 49 | 1012.9 |
| 20260506195801 | 32 | 96 | 3.2 | 12.9 | 0.00 | 0.10 | 0.00 | 48 | 1013.1 |
| 20260506195301 | 32 | 183 | 4.8 | 14.5 | 0.00 | 0.10 | 0.00 | 48 | 1013.1 |
| 20260506194801 | 32 | 225 | 4.8 | 14.5 | 0.00 | 0.10 | 0.00 | 50 | 1013.2 |
| 20260506194301 | 32 | 140 | 3.2 | 9.7 | 0.00 | 0.10 | 0.00 | 48 | 1013.3 |
| 20260506193801 | 32 | 0 | 3.2 | 8.0 | 0.00 | 0.10 | 0.00 | 48 | 1013.4 |
| 20260506192800 | 32 | 211 | 6.4 | 11.3 | 0.00 | 0.10 | 0.00 | 49 | 1013.6 |
| 20260506192305 | 32 | 70 | 3.2 | 9.7 | 0.00 | 0.10 | 0.00 | 51 | 1013.6 |
| 20260506191301 | 32 | 337 | 3.2 | 8.0 | 0.00 | 0.10 | 0.00 | 48 | 1013.8 |
| 20260506190801 | 32 | 218 | 3.2 | 9.7 | 0.00 | 0.10 | 0.00 | 52 | 1013.8 |
| 20260506190301 | 31 | 0 | 4.8 | 11.3 | 0.00 | 0.10 | 0.00 | 52 | 1013.8 |
| 20260506185802 | 32 | 134 | 4.8 | 12.9 | 0.00 | 0.10 | 0.00 | 50 | 1014.0 |
| 20260506185306 | 32 | 206 | 4.8 | 14.5 | 0.00 | 0.10 | 0.00 | 50 | 1014.0 |
| 20260506184302 | 32 | 0 | 3.2 | 12.9 | 0.00 | 0.10 | 0.00 | 51 | 1014.1 |
| 20260506183800 | 32 | 93 | 3.2 | 11.3 | 0.00 | 0.10 | 0.00 | 50 | 1014.2 |
| 20260506183301 | 32 | 280 | 4.8 | 11.3 | 0.00 | 0.10 | 0.00 | 50 | 1014.3 |
| 20260506182301 | 32 | 23 | 3.2 | 9.7 | 0.00 | 0.10 | 0.00 | 50 | 1014.3 |
| 20260506181802 | 31 | 176 | 3.2 | 9.7 | 0.00 | 0.10 | 0.00 | 52 | 1014.6 |
| 20260506181301 | 31 | 329 | 3.2 | 9.7 | 0.00 | 0.10 | 0.00 | 52 | 1014.5 |
| 20260506180801 | 31 | 309 | 3.2 | 9.7 | 0.00 | 0.10 | 0.00 | 50 | 1014.7 |
| 20260506180301 | 31 | 0 | 4.8 | 9.7 | 0.00 | 0.10 | 0.00 | 52 | 1014.7 |
| 20260506175802 | 31 | 140 | 4.8 | 9.7 | 0.00 | 0.10 | 0.00 | 55 | 1014.7 |
| 20260506175301 | 31 | 123 | 3.2 | 9.7 | 0.00 | 0.10 | 0.00 | 53 | 1014.8 |
| 20260506174802 | 31 | 52 | 3.2 | 9.7 | 0.00 | 0.10 | 0.00 | 52 | 1014.8 |
| 20260506174301 | 30 | 205 | 4.8 | 8.0 | 0.00 | 0.10 | 0.00 | 56 | 1014.9 |
| 20260506173802 | 30 | 117 | 3.2 | 8.0 | 0.00 | 0.10 | 0.00 | 55 | 1014.9 |
| 20260506173301 | 30 | 0 | 3.2 | 11.3 | 0.00 | 0.10 | 0.00 | 56 | 1015.0 |
| 20260506172801 | 30 | 212 | 3.2 | 11.3 | 0.00 | 0.10 | 0.00 | 57 | 1015.1 |
| 20260506172301 | 30 | 226 | 4.8 | 9.7 | 0.00 | 0.10 | 0.00 | 55 | 1015.2 |
| 20260506171300 | 30 | 141 | 3.2 | 12.9 | 0.00 | 0.10 | 0.00 | 57 | 1015.3 |
| 20260506170800 | 30 | 0 | 4.8 | 12.9 | 0.00 | 0.10 | 0.00 | 59 | 1015.4 |
| 20260506170301 | 30 | 223 | 3.2 | 8.0 | 0.00 | 0.10 | 0.00 | 58 | 1015.4 |
| 20260506165800 | 29 | 240 | 3.2 | 8.0 | 0.00 | 0.10 | 0.00 | 57 | 1015.5 |
| 20260506165306 | 29 | 187 | 3.2 | 8.0 | 0.00 | 0.10 | 0.00 | 59 | 1015.5 |
| 20260506164801 | 30 | 224 | 3.2 | 8.0 | 0.00 | 0.10 | 0.00 | 58 | 1015.6 |
| 20260506163801 | 30 | 200 | 3.2 | 8.0 | 0.00 | 0.10 | 0.00 | 59 | 1015.7 |
| 20260506163301 | 30 | 156 | 3.2 | 6.4 | 0.00 | 0.10 | 0.00 | 59 | 1015.8 |
| 20260506162801 | 29 | 197 | 3.2 | 9.7 | 0.00 | 0.10 | 0.00 | 60 | 1015.7 |
| 20260506162301 | 30 | 199 | 3.2 | 9.7 | 0.00 | 0.10 | 0.00 | 59 | 1015.8 |
| 20260506161301 | 28 | 137 | 4.8 | 12.9 | 0.00 | 0.10 | 0.00 | 61 | 1015.9 |
| 20260506160801 | 28 | 119 | 4.8 | 12.9 | 0.00 | 0.10 | 0.00 | 64 | 1015.9 |
| 20260506160301 | 28 | 170 | 4.8 | 8.0 | 0.00 | 0.10 | 0.00 | 62 | 1016.0 |
| 20260506155804 | 28 | 193 | 4.8 | 6.4 | 0.00 | 0.10 | 0.00 | 61 | 1016.0 |
| 20260506155305 | 28 | 162 | 4.8 | 8.0 | 0.00 | 0.10 | 0.00 | 61 | 1015.9 |
| 20260506154801 | 28 | 163 | 4.8 | 8.0 | 0.00 | 0.10 | 0.00 | 62 | 1016.0 |
| 20260506154301 | 28 | 236 | 3.2 | 8.0 | 0.00 | 0.10 | 0.00 | 62 | 1015.9 |
| 20260506153301 | 28 | 220 | 3.2 | 9.7 | 0.00 | 0.10 | 0.00 | 64 | 1016.0 |
| 20260506152801 | 28 | 215 | 3.2 | 9.7 | 0.00 | 0.10 | 0.00 | 62 | 1016.1 |
| 20260506152301 | 28 | 121 | 3.2 | 9.7 | 0.00 | 0.10 | 0.00 | 63 | 1016.0 |
| 20260506151801 | 28 | 163 | 3.2 | 9.7 | 0.00 | 0.10 | 0.00 | 64 | 1016.0 |
| 20260506151301 | 28 | 150 | 3.2 | 9.7 | 0.00 | 0.10 | 0.00 | 63 | 1015.9 |
| 20260506150801 | 27 | 0 | 3.2 | 9.7 | 0.00 | 0.10 | 0.00 | 65 | 1015.9 |
| 20260506150304 | 27 | 311 | 3.2 | 9.7 | 0.00 | 0.10 | 0.00 | 65 | 1015.9 |
| 20260506145800 | 27 | 223 | 3.2 | 6.4 | 0.00 | 0.10 | 0.00 | 66 | 1015.9 |
| 20260506145305 | 26 | 146 | 3.2 | 8.0 | 0.00 | 0.10 | 0.00 | 66 | 1015.8 |
| 20260506144802 | 26 | 195 | 4.8 | 8.0 | 0.00 | 0.10 | 0.00 | 67 | 1015.8 |
| 20260506144302 | 26 | 200 | 4.8 | 8.0 | 0.00 | 0.10 | 0.00 | 69 | 1015.7 |
| 20260506143802 | 26 | 192 | 4.8 | 9.7 | 0.00 | 0.10 | 0.00 | 68 | 1015.7 |
| 20260506143301 | 26 | 172 | 3.2 | 9.7 | 0.00 | 0.10 | 0.00 | 67 | 1015.6 |
| 20260506142801 | 26 | 152 | 3.2 | 6.4 | 0.00 | 0.10 | 0.00 | 69 | 1015.7 |
| 20260506142301 | 26 | 218 | 3.2 | 6.4 | 0.00 | 0.10 | 0.00 | 69 | 1015.6 |
| 20260506141302 | 25 | 0 | 3.2 | 8.0 | 0.00 | 0.10 | 0.00 | 71 | 1015.7 |
| 20260506140801 | 25 | 201 | 3.2 | 6.4 | 0.00 | 0.10 | 0.00 | 71 | 1015.7 |
| 20260506140302 | 25 | 0 | 4.8 | 16.1 | 0.00 | 0.10 | 0.00 | 71 | 1015.8 |
| 20260506135801 | 25 | 108 | 4.8 | 16.1 | 0.00 | 0.10 | 0.00 | 72 | 1015.7 |
| 20260506135305 | 25 | 0 | 4.8 | 9.7 | 0.00 | 0.10 | 0.00 | 74 | 1015.7 |
| 20260506134801 | 25 | 160 | 3.2 | 9.7 | 0.00 | 0.10 | 0.00 | 75 | 1015.7 |
| 20260506134305 | 24 | 128 | 3.2 | 9.7 | 0.00 | 0.10 | 0.00 | 76 | 1015.8 |
| 20260506133800 | 24 | 222 | 3.2 | 9.7 | 0.00 | 0.10 | 0.00 | 76 | 1015.8 |
| 20260506133301 | 24 | 0 | 3.2 | 9.7 | 0.00 | 0.10 | 0.00 | 76 | 1015.8 |
| 20260506132801 | 24 | 156 | 3.2 | 9.7 | 0.00 | 0.10 | 0.00 | 77 | 1015.9 |
| 20260506132301 | 23 | 182 | 3.2 | 8.0 | 0.00 | 0.10 | 0.00 | 78 | 1015.9 |
| 20260506131802 | 23 | 201 | 3.2 | 6.4 | 0.00 | 0.10 | 0.00 | 78 | 1015.9 |
| 20260506131302 | 23 | 223 | 3.2 | 11.3 | 0.00 | 0.10 | 0.00 | 79 | 1015.9 |
| 20260506130803 | 22 | 205 | 3.2 | 11.3 | 0.00 | 0.10 | 0.00 | 80 | 1015.9 |
| 20260506130301 | 22 | 187 | 1.6 | 11.3 | 0.00 | 0.10 | 0.00 | 81 | 1015.7 |
| 20260506125801 | 22 | 0 | 1.6 | 4.8 | 0.00 | 0.10 | 0.00 | 81 | 1015.8 |
| 20260506125301 | 21 | 200 | 1.6 | 6.4 | 0.00 | 0.10 | 0.00 | 82 | 1015.8 |
| 20260506124802 | 21 | 191 | 1.6 | 6.4 | 0.00 | 0.10 | 0.00 | 83 | 1015.7 |
| 20260506124301 | 21 | 0 | 1.6 | 4.8 | 0.00 | 0.10 | 0.00 | 82 | 1015.6 |
| 20260506123800 | 21 | 162 | 1.6 | 4.8 | 0.00 | 0.10 | 0.00 | 83 | 1015.6 |
| 20260506123301 | 20 | 0 | 0.0 | 4.8 | 0.00 | 0.10 | 0.00 | 84 | 1015.6 |
| 20260506121801 | 18 | 158 | 0.0 | 8.0 | 0.00 | 0.10 | 0.00 | 90 | 1015.3 |
| 20260506120301 | 17 | 0 | 0.0 | 0.0 | 0.00 | 0.10 | 0.00 | 95 | 1015.1 |
| 20260506115801 | 17 | 0 | 0.0 | 0.0 | 0.00 | 0.10 | 0.00 | 95 | 1015.1 |
| 20260506115300 | 16 | 0 | 0.0 | 0.0 | 0.00 | 0.10 | 0.00 | 96 | 1015.0 |
| 20260506114802 | 16 | 0 | 0.0 | 0.0 | 0.00 | 0.10 | 0.00 | 96 | 1015.0 |
| 20260506114302 | 16 | 0 | 0.0 | 0.0 | 0.00 | 0.10 | 0.00 | 96 | 1015.1 |
| 20260506113802 | 16 | 0 | 0.0 | 0.0 | 0.00 | 0.10 | 0.00 | 96 | 1015.1 |
| 20260506113302 | 15 | 0 | 0.0 | 0.0 | 0.00 | 0.10 | 0.00 | 96 | 1015.1 |
| 20260506112802 | 15 | 0 | 0.0 | 0.0 | 0.00 | 0.10 | 0.00 | 96 | 1015.1 |
| 20260506112302 | 15 | 0 | 0.0 | 0.0 | 0.00 | 0.10 | 0.00 | 96 | 1015.0 |
| 20260506111300 | 15 | 0 | 0.0 | 1.6 | 0.00 | 0.10 | 0.00 | 95 | 1015.0 |
| 20260506110802 | 15 | 0 | 0.0 | 1.6 | 0.00 | 0.10 | 0.00 | 95 | 1014.9 |
| 20260506110302 | 15 | 206 | 0.0 | 1.6 | 0.00 | 0.10 | 0.00 | 95 | 1014.9 |
| 20260506105806 | 15 | 0 | 0.0 | 0.0 | 0.00 | 0.10 | 0.00 | 95 | 1014.8 |
| 20260506104803 | 15 | 0 | 0.0 | 0.0 | 0.00 | 0.10 | 0.00 | 95 | 1014.7 |
| 20260506104301 | 15 | 0 | 0.0 | 0.0 | 0.00 | 0.10 | 0.00 | 95 | 1014.7 |
| 20260506103801 | 15 | 0 | 0.0 | 0.0 | 0.00 | 0.10 | 0.00 | 95 | 1014.6 |
| 20260506103302 | 15 | 0 | 0.0 | 1.6 | 0.00 | 0.10 | 0.00 | 95 | 1014.5 |
| 20260506102800 | 15 | 0 | 0.0 | 3.2 | 0.00 | 0.10 | 0.00 | 95 | 1014.5 |
| 20260506102305 | 15 | 293 | 0.0 | 3.2 | 0.00 | 0.10 | 0.00 | 95 | 1014.6 |
| 20260506101802 | 15 | 0 | 0.0 | 0.0 | 0.00 | 0.10 | 0.00 | 94 | 1014.5 |
| 20260506101302 | 15 | 0 | 0.0 | 0.0 | 0.00 | 0.10 | 0.00 | 94 | 1014.4 |
| 20260506100802 | 15 | 0 | 0.0 | 0.0 | 0.00 | 0.10 | 0.00 | 94 | 1014.4 |
| 20260506100302 | 15 | 0 | 0.0 | 0.0 | 0.00 | 0.10 | 0.00 | 94 | 1014.6 |
| 20260506095802 | 15 | 0 | 0.0 | 0.0 | 0.00 | 0.10 | 0.00 | 94 | 1014.5 |
| 20260506095301 | 15 | 0 | 0.0 | 0.0 | 0.00 | 0.10 | 0.00 | 94 | 1014.6 |
| 20260506094302 | 15 | 0 | 0.0 | 0.0 | 0.00 | 0.10 | 0.00 | 94 | 1014.7 |
| 20260506093802 | 15 | 0 | 0.0 | 0.0 | 0.00 | 0.10 | 0.00 | 94 | 1014.6 |
| 20260506093302 | 15 | 0 | 0.0 | 1.6 | 0.00 | 0.10 | 0.00 | 94 | 1014.7 |
| 20260506092802 | 15 | 0 | 0.0 | 1.6 | 0.00 | 0.10 | 0.00 | 94 | 1014.6 |
| 20260506092300 | 15 | 273 | 0.0 | 1.6 | 0.00 | 0.10 | 0.00 | 94 | 1014.6 |
| 20260506091803 | 15 | 0 | 0.0 | 0.0 | 0.00 | 0.10 | 0.00 | 93 | 1014.4 |
| 20260506090802 | 15 | 0 | 0.0 | 0.0 | 0.00 | 0.10 | 0.00 | 93 | 1014.1 |
| 20260506090306 | 15 | 0 | 0.0 | 0.0 | 0.00 | 0.10 | 0.00 | 93 | 1014.0 |
| 20260506085802 | 15 | 0 | 0.0 | 0.0 | 0.00 | 0.10 | 0.00 | 93 | 1014.1 |
| 20260506084803 | 15 | 0 | 0.0 | 0.0 | 0.00 | 0.10 | 0.00 | 93 | 1014.3 |
| 20260506084302 | 15 | 0 | 0.0 | 0.0 | 0.00 | 0.10 | 0.00 | 92 | 1014.3 |
| 20260506083302 | 16 | 256 | 0.0 | 1.6 | 0.00 | 0.10 | 0.00 | 92 | 1014.4 |
| 20260506082801 | 16 | 0 | 0.0 | 1.6 | 0.00 | 0.10 | 0.00 | 92 | 1014.3 |
| 20260506082304 | 16 | 24 | 0.0 | 1.6 | 0.00 | 0.10 | 0.00 | 92 | 1014.4 |
| 20260506081802 | 16 | 0 | 0.0 | 0.0 | 0.00 | 0.10 | 0.00 | 92 | 1014.3 |
| 20260506081302 | 16 | 0 | 0.0 | 0.0 | 0.00 | 0.10 | 0.00 | 92 | 1014.2 |
| 20260506080302 | 16 | 0 | 0.0 | 3.2 | 0.00 | 0.10 | 0.00 | 92 | 1014.3 |
| 20260506073301 | 15 | 0 | 0.0 | 0.0 | 0.00 | 0.10 | 0.00 | 93 | 1013.9 |
| 20260506072802 | 15 | 0 | 0.0 | 0.0 | 0.00 | 0.10 | 0.00 | 93 | 1013.9 |
| 20260506072305 | 15 | 0 | 0.0 | 0.0 | 0.00 | 0.10 | 0.00 | 93 | 1014.0 |
| 20260506071803 | 15 | 0 | 0.0 | 0.0 | 0.00 | 0.10 | 0.00 | 93 | 1014.1 |
| 20260506071302 | 15 | 0 | 0.0 | 0.0 | 0.00 | 0.10 | 0.00 | 93 | 1014.1 |
| 20260506070802 | 15 | 0 | 0.0 | 0.0 | 0.00 | 0.10 | 0.00 | 93 | 1014.1 |
| 20260506070302 | 15 | 0 | 0.0 | 0.0 | 0.00 | 0.10 | 0.00 | 93 | 1014.2 |
| 20260506062305 | 15 | 0 | 0.0 | 0.0 | 0.00 | 0.10 | 0.00 | 92 | 1014.8 |
| 20260506061801 | 15 | 0 | 0.0 | 0.0 | 0.00 | 0.10 | 0.00 | 92 | 1014.8 |
| 20260506061302 | 15 | 0 | 0.0 | 0.0 | 0.00 | 0.10 | 0.00 | 91 | 1014.8 |
| 20260506060801 | 15 | 0 | 0.0 | 0.0 | 0.00 | 0.10 | 0.00 | 91 | 1014.8 |
| 20260506060301 | 15 | 0 | 0.0 | 0.0 | 0.00 | 0.10 | 0.00 | 91 | 1014.9 |
| 20260506051301 | 16 | 0 | 0.0 | 1.6 | 0.00 | 0.10 | 0.00 | 90 | 1015.4 |
| 20260506050806 | 16 | 0 | 0.0 | 1.6 | 0.00 | 0.10 | 0.00 | 90 | 1015.3 |
| 20260506050301 | 16 | 26 | 0.0 | 1.6 | 0.00 | 0.10 | 0.00 | 90 | 1015.2 |
| 20260506044801 | 16 | 0 | 0.0 | 0.0 | 0.00 | 0.10 | 0.00 | 90 | 1015.4 |
| 20260506044305 | 16 | 0 | 0.0 | 0.0 | 0.00 | 0.10 | 0.00 | 89 | 1015.5 |
| 20260506043803 | 16 | 0 | 0.0 | 0.0 | 0.00 | 0.10 | 0.00 | 89 | 1015.6 |
| 20260506043301 | 16 | 0 | 0.0 | 1.6 | 0.00 | 0.10 | 0.00 | 89 | 1015.5 |
| 20260506042802 | 16 | 0 | 0.0 | 1.6 | 0.00 | 0.10 | 0.00 | 89 | 1015.4 |
| 20260506042300 | 16 | 34 | 1.6 | 3.2 | 0.00 | 0.10 | 0.00 | 89 | 1015.5 |
| 20260506041801 | 17 | 225 | 1.6 | 3.2 | 0.00 | 0.10 | 0.00 | 88 | 1015.5 |
| 20260506041302 | 17 | 227 | 0.0 | 3.2 | 0.00 | 0.10 | 0.00 | 88 | 1015.5 |
| 20260506040801 | 17 | 0 | 0.0 | 1.6 | 0.00 | 0.10 | 0.00 | 87 | 1015.5 |
| 20260506040301 | 17 | 0 | 0.0 | 3.2 | 0.00 | 0.10 | 0.00 | 87 | 1015.6 |
| 20260506035801 | 17 | 0 | 0.0 | 3.2 | 0.00 | 0.10 | 0.10 | 87 | 1015.6 |
| 20260506035300 | 17 | 215 | 0.0 | 3.2 | 0.00 | 0.10 | 0.10 | 86 | 1015.6 |
| 20260506034301 | 17 | 0 | 0.0 | 3.2 | 0.00 | 0.10 | 0.10 | 85 | 1015.5 |
| 20260506033300 | 18 | 217 | 0.0 | 1.6 | 0.00 | 0.10 | 0.10 | 83 | 1015.5 |
| 20260506032800 | 18 | 0 | 0.0 | 0.0 | 0.00 | 0.10 | 0.10 | 82 | 1015.5 |
| 20260506032301 | 18 | 0 | 0.0 | 1.6 | 0.00 | 0.10 | 0.10 | 82 | 1015.5 |
| 20260506031301 | 18 | 0 | 0.0 | 0.0 | 0.00 | 0.10 | 0.10 | 81 | 1015.4 |
| 20260506030800 | 18 | 0 | 0.0 | 0.0 | 0.00 | 0.10 | 0.10 | 81 | 1015.3 |
| 20260506025230 | 19 | 0 | 0.0 | 0.0 | 0.00 | 0.10 | 0.10 | 80 | 1015.1 |
| 20260506024731 | 19 | 0 | 0.0 | 0.0 | 0.00 | 0.10 | 0.10 | 79 | 1015.2 |
| 20260506024230 | 19 | 0 | 0.0 | 0.0 | 0.00 | 0.10 | 0.10 | 79 | 1015.3 |
| 20260506023230 | 20 | 219 | 3.2 | 8.0 | 0.00 | 0.10 | 0.10 | 77 | 1015.3 |
| 20260506022730 | 20 | 226 | 1.6 | 8.0 | 0.00 | 0.10 | 0.10 | 77 | 1015.3 |
| 20260506021221 | 20 | 0 | 0.0 | 3.2 | 0.00 | 0.10 | 0.10 | 75 | 1015.0 |
| 20260506020715 | 20 | 0 | 0.0 | 3.2 | 0.00 | 0.10 | 0.10 | 74 | 1014.8 |
| 20260506015715 | 21 | 203 | 1.6 | 3.2 | 0.00 | 0.10 | 0.10 | 73 | 1014.8 |
| 20260506015216 | 21 | 0 | 1.6 | 4.8 | 0.00 | 0.10 | 0.10 | 72 | 1014.8 |
| 20260506014707 | 21 | 211 | 3.2 | 6.4 | 0.00 | 0.10 | 0.10 | 71 | 1014.6 |
| 20260506013702 | 21 | 0 | 3.2 | 6.4 | 0.00 | 0.10 | 0.10 | 71 | 1014.5 |
| 20260506013202 | 21 | 141 | 3.2 | 6.4 | 0.00 | 0.10 | 0.10 | 70 | 1014.5 |
| 20260506012201 | 22 | 142 | 6.4 | 9.7 | 0.00 | 0.10 | 0.10 | 69 | 1014.4 |
| 20260506011701 | 22 | 141 | 6.4 | 11.3 | 0.00 | 0.10 | 0.10 | 69 | 1014.4 |
| 20260506011201 | 22 | 108 | 6.4 | 14.5 | 0.00 | 0.10 | 0.10 | 69 | 1014.4 |
| 20260506010701 | 22 | 130 | 8.0 | 14.5 | 0.00 | 0.10 | 0.10 | 68 | 1014.3 |
| 20260506010200 | 22 | 101 | 6.4 | 14.5 | 0.00 | 0.10 | 0.10 | 68 | 1014.3 |
| 20260506005200 | 22 | 162 | 4.8 | 12.9 | 0.00 | 0.10 | 0.10 | 67 | 1014.3 |
| 20260506003705 | 22 | 131 | 4.8 | 11.3 | 0.00 | 0.10 | 0.10 | 66 | 1014.2 |
| 20260506003201 | 22 | 119 | 4.8 | 11.3 | 0.00 | 0.10 | 0.10 | 66 | 1014.2 |
| 20260506002701 | 22 | 130 | 4.8 | 9.7 | 0.00 | 0.10 | 0.10 | 65 | 1014.1 |
| 20260506002201 | 22 | 85 | 6.4 | 12.9 | 0.00 | 0.10 | 0.10 | 64 | 1014.1 |
| 20260506001701 | 23 | 85 | 8.0 | 14.5 | 0.00 | 0.10 | 0.10 | 64 | 1014.1 |
| 20260506001200 | 23 | 67 | 8.0 | 14.5 | 0.00 | 0.10 | 0.10 | 63 | 1014.1 |
| 20260506000701 | 23 | 103 | 6.4 | 14.5 | 0.03 | 0.10 | 0.10 | 62 | 1013.9 |
| 20260506000200 | 23 | 102 | 6.4 | 14.5 | 0.03 | 0.10 | 0.10 | 62 | 1013.8 |
| 20260505235700 | 23 | 104 | 6.4 | 14.5 | 0.03 | 0.10 | 0.10 | 61 | 1013.8 |
| 20260505235200 | 23 | 107 | 6.4 | 14.5 | 0.03 | 0.10 | 0.10 | 60 | 1013.8 |
| 20260505234700 | 23 | 116 | 8.0 | 14.5 | 0.03 | 0.10 | 0.10 | 60 | 1013.8 |
| 20260505234205 | 23 | 111 | 8.0 | 16.1 | 0.03 | 0.10 | 0.10 | 59 | 1013.8 |
| 20260505233702 | 23 | 104 | 8.0 | 16.1 | 0.03 | 0.10 | 0.10 | 59 | 1013.7 |
| 20260505233201 | 24 | 147 | 8.0 | 16.1 | 0.03 | 0.10 | 0.10 | 58 | 1013.7 |
| 20260505232701 | 24 | 88 | 9.7 | 16.1 | 0.03 | 0.10 | 0.10 | 58 | 1013.7 |
| 20260505232201 | 24 | 119 | 8.0 | 16.1 | 0.03 | 0.10 | 0.10 | 57 | 1013.6 |
| 20260505231701 | 24 | 99 | 9.7 | 16.1 | 0.03 | 0.10 | 0.10 | 57 | 1013.7 |
| 20260505231201 | 24 | 128 | 9.7 | 17.7 | 0.00 | 0.10 | 0.10 | 56 | 1013.7 |
| 20260505230702 | 24 | 68 | 9.7 | 17.7 | 0.00 | 0.08 | 0.08 | 56 | 1013.6 |
| 20260505230201 | 25 | 126 | 9.7 | 17.7 | 0.00 | 0.08 | 0.08 | 55 | 1013.7 |
| 20260505225701 | 25 | 129 | 8.0 | 14.5 | 0.00 | 0.08 | 0.08 | 56 | 1013.7 |
| 20260505225202 | 25 | 82 | 6.4 | 12.9 | 0.00 | 0.08 | 0.08 | 56 | 1013.6 |
| 20260505224700 | 25 | 106 | 8.0 | 19.3 | 0.00 | 0.08 | 0.08 | 56 | 1013.6 |
| 20260505224201 | 25 | 16 | 9.7 | 19.3 | 0.00 | 0.08 | 0.08 | 56 | 1013.6 |
| 20260505223704 | 25 | 89 | 9.7 | 17.7 | 0.00 | 0.08 | 0.08 | 56 | 1013.6 |
| 20260505223201 | 25 | 97 | 9.7 | 17.7 | 0.03 | 0.08 | 0.08 | 56 | 1013.5 |
| 20260505222700 | 25 | 70 | 12.9 | 20.9 | 0.08 | 0.08 | 0.08 | 56 | 1013.5 |
| 20260505222202 | 25 | 98 | 12.9 | 20.9 | 0.08 | 0.08 | 0.08 | 55 | 1013.5 |
| 20260505221701 | 25 | 93 | 9.7 | 20.9 | 0.08 | 0.08 | 0.08 | 56 | 1013.4 |
| 20260505221202 | 25 | 115 | 11.3 | 24.1 | 0.08 | 0.08 | 0.08 | 56 | 1013.6 |
| 20260505220702 | 25 | 117 | 11.3 | 24.1 | 0.08 | 0.08 | 0.08 | 56 | 1013.6 |
| 20260505220202 | 25 | 138 | 9.7 | 19.3 | 0.08 | 0.08 | 0.08 | 56 | 1013.6 |
| 20260505214700 | 25 | 56 | 11.3 | 20.9 | 0.08 | 0.08 | 0.08 | 54 | 1013.4 |
| 20260505214201 | 25 | 120 | 11.3 | 20.9 | 0.08 | 0.08 | 0.08 | 54 | 1013.4 |
| 20260505213701 | 25 | 103 | 11.3 | 20.9 | 0.08 | 0.08 | 0.08 | 54 | 1013.5 |
| 20260505213201 | 25 | 85 | 11.3 | 20.9 | 0.05 | 0.05 | 0.05 | 54 | 1013.5 |
| 20260505212701 | 25 | 32 | 9.7 | 20.9 | 0.00 | 0.00 | 0.00 | 53 | 1013.4 |
| 20260505212201 | 25 | 72 | 11.3 | 22.5 | 0.00 | 0.00 | 0.00 | 54 | 1013.4 |